Zurück zum Katalog

ONEWEB-0566

AktivKommunikationPO
NORAD 56061·PAYLOAD·🇬🇧 United Kingdom

Gestartet Mar 26, 2023 von Satish Dhawan Space Centre

Loading…

Nächste Überflüge (nächste 24 Stunden)

TLE

AktuellSource: CelesTrak SupGP

Epoche: Sep 14, 2026, 18:20 UTC

1 56061C 23043R   26257.76439074  .00003396  00000+0  82330-2 0  2577
2 56061  87.9282 226.1417 0002054  73.8797   7.2180 13.21823896    13

Verfolge ONEWEB-0566 in Echtzeit mit AllMySat

Download on the App Store